sat.trackr.live / text

‹ back to catalog

STARLINK-35764

NORAD 67109 · 2025-299H

PAYLOAD ACTIVE UNKNOWN

§ Identity

Operator
Country
US
Launch date
2025-12-15
Launch site
AFETR
Launch vehicle
Mass (kg)
RCS (m²)

Purposes: comms

External: N2YO · Heavens-Above · Gunter

§ Orbital elements

Epoch: 2026-09-20T02:55:56.339040Z

Period
94.27 min
Inclination
42.9999°
Eccentricity
0.0001017
Mean motion
15.27587035 rev/d
Perigee alt
482.3 km
Apogee alt
483.7 km
Semi-major
6,861.2 km
B*
5.4756e-4
RAAN
150.8156°
Arg perigee
6.1803°
Mean anomaly
353.9061°
Rev number
4,394

§ Raw data

STARLINK-357641 67109U 25299H   26263.12217985  .00014839  00000+0  54756-3 0  99982 67109  42.9999 150.8156 0001017   6.1803 353.9061 15.27587035 43940

JSON: /api/v1/satellites/67109 · /tle

For live sub-satellite position, see the globe view (requires WebGL).

§ Visibility from observer

Set your observer location to see the next 7 days of passes ≥ 10°. The values pass through the URL so the page stays shareable.

No JS? Fill the form by hand. The geolocation button needs JavaScript.